Location: Bad Salzschlirf
(50.3750°N, 9.3000°E)
Time: 07:20:50
(UTC+01:00)

ISS - Pass Details

Date: 07 December 2018
Orbit: 401 x 408 km, 51.6° (Epoch: 12 December)

Event Time Altitude Azimuth Distance (km) Brightness Sun altitude
Rises 18:27:18 0° 286° (WNW) 2,319 1.1 -19.3°
Reaches altitude 10° 18:29:23 10° 284° (WNW) 1,457 -0.1 -19.6°
Maximum altitude 18:32:38 70° 201° (SSW) 432 -3.7 -20.1°
Enters shadow 18:32:43 69° 187° (S) 434 -3.8 -20.1°
